Regional Weather Roundup
Issued by NWS

Home | Current Version | Previous Version | Graphics & Text | Print | Product List | Glossary On
Versions: 1 2 3 4 5 6 7 8 9 10 11 12 13 14 15 16 17 18 19 20 21 22 23 24 25 26 27 28 29 30 31 32 33 34 35 36 37 38 39 40 41 42 43 44 45 46 47 48 49 50
946
ASUS43 KBIS 030202
RWRND

NORTH DAKOTA REGIONAL WEATHER ROUNDUP
NATIONAL WEATHER SERVICE BISMARCK ND
900 PM CDT MON MAY 02 2016

NOTE: "FAIR" INDICATES FEW OR NO CLOUDS BELOW 12,000 FEET WITH NO
SIGNIFICANT WEATHER AND/OR OBSTRUCTIONS TO VISIBILITY.


NDZ001>003-009>011-017-030300-
NORTHWEST NORTH DAKOTA

CITY           SKY/WX    TMP DP  RH WIND       PRES   REMARKS
WILLISTON      CLEAR     57  36  45 N3        29.98F
MINOT          CLEAR     63  35  35 SE6       29.98R
$$

NDZ018>021-031>035-040>046-030300-
SOUTHWEST NORTH DAKOTA

CITY           SKY/WX    TMP DP  RH WIND       PRES   REMARKS
BISMARCK       CLEAR     56  42  59 E6        29.99R
DICKINSON      CLEAR     55  33  43 NE6       30.00R
GARRISON         N/A     60  36  40 CALM      29.99R
HETTINGER ARPT CLEAR     54  33  45 NE9       30.02R
$$

NDZ004>008-012>016-024-026-027-054-030300-
NORTHEAST NORTH DAKOTA

CITY           SKY/WX    TMP DP  RH WIND       PRES   REMARKS
GRAND FORKS    PTCLDY    57  35  43 SW8       29.94S
DEVILS LAKE    CLEAR     58  36  43 SW8       29.99S
$$

NDZ022-023-025-028>030-036>039-047>053-030300-
SOUTHEAST NORTH DAKOTA

CITY           SKY/WX    TMP DP  RH WIND       PRES   REMARKS
FARGO          CLEAR     62  35  36 W13       29.96S
JAMESTOWN      CLEAR     52  37  56 CALM      30.00S
$$





USA.gov is the U.S. government's official web portal to all federal, state and local government web resources and services.